• In Österreich
  • Länderverzeichnis
  • Für 7 Tage
  • Wassertemperatur
  • Satellitenkarten
  • Wetterkarte
  • News
  • Widgets
  • user-avatar
    Anmelden

    Stündliche Wetter Suşehri

    Heute, 22 Juli, Sonntag

    Zeit Temperatur Niederschläge Wind Luftdruck Luftfeuchtigkeit
    00:00 +17°C° 0 mm 2 m/S 668 mmHg 90%
    01:00 +17°C° 0 mm 2 m/S 668 mmHg 90%
    02:00 +16°C° 0 mm 1 m/S 667 mmHg 89%
    03:00 +16°C° 0 mm 1 m/S 667 mmHg 89%
    04:00 +16°C° 0 mm 1 m/S 667 mmHg 88%
    05:00 +16°C° 0 mm 1 m/S 667 mmHg 88%
    06:00 +16°C° 0 mm 1 m/S 668 mmHg 88%
    07:00 +18°C° 0 mm 2 m/S 668 mmHg 79%
    08:00 +20°C° 0 mm 2 m/S 668 mmHg 71%
    09:00 +23°C° 0 mm 2 m/S 669 mmHg 62%
    10:00 +24°C° 0 mm 3 m/S 669 mmHg 58%
    11:00 +26°C° 0 mm 3 m/S 669 mmHg 53%
    12:00 +27°C° 0 mm 4 m/S 669 mmHg 48%
    13:00 +27°C° 0 mm 4 m/S 669 mmHg 49%
    14:00 +27°C° 0 mm 5 m/S 668 mmHg 51%
    15:00 +28°C° 0 mm 5 m/S 668 mmHg 52%
    16:00 +27°C° 0 mm 5 m/S 668 mmHg 56%
    17:00 +26°C° 0 mm 5 m/S 668 mmHg 59%
    18:00 +25°C° 0 mm 5 m/S 667 mmHg 63%
    19:00 +22°C° 0 mm 4 m/S 667 mmHg 71%
    20:00 +21°C° 0 mm 3 m/S 667 mmHg 78%
    21:00 +19°C° 0 mm 2 m/S 667 mmHg 86%
    22:00 +18°C° 0 mm 2 m/S 667 mmHg 87%
    23:00 +18°C° 0 mm 2 m/S 667 mmHg 89%

    Morgen, 23 Juli, Montag

    Zeit Temperatur Niederschläge Wind Luftdruck Luftfeuchtigkeit
    00:00 +18°C° 0 mm 1 m/S 667 mmHg 91%
    01:00 +18°C° 0 mm 1 m/S 667 mmHg 91%
    02:00 +16°C° 0 mm 1 m/S 666 mmHg 91%
    03:00 +16°C° 0 mm 1 m/S 666 mmHg 91%
    04:00 +16°C° 0 mm 1 m/S 666 mmHg 90%
    05:00 +16°C° 0 mm 1 m/S 666 mmHg 88%
    06:00 +16°C° 0 mm 1 m/S 666 mmHg 87%
    07:00 +19°C° 0 mm 1 m/S 666 mmHg 78%
    08:00 +21°C° 0 mm 1 m/S 667 mmHg 68%
    09:00 +23°C° 0 mm 2 m/S 667 mmHg 58%
    10:00 +24°C° 0 mm 2 m/S 667 mmHg 54%
    11:00 +26°C° 0 mm 2 m/S 667 mmHg 50%
    12:00 +27°C° 0 mm 3 m/S 667 mmHg 45%
    13:00 +28°C° 0,2 mm 3 m/S 667 mmHg 46%
    14:00 +28°C° 0,2 mm 3 m/S 667 mmHg 46%
    15:00 +28°C° 0,2 mm 4 m/S 666 mmHg 46%
    16:00 +28°C° 0,1 mm 4 m/S 666 mmHg 49%
    17:00 +27°C° 0,1 mm 4 m/S 666 mmHg 53%
    18:00 +26°C° 0,1 mm 4 m/S 666 mmHg 56%
    19:00 +24°C° 0 mm 3 m/S 666 mmHg 64%
    20:00 +23°C° 0 mm 2 m/S 666 mmHg 73%
    21:00 +21°C° 0 mm 1 m/S 666 mmHg 81%
    22:00 +20°C° 0 mm 1 m/S 666 mmHg 83%
    23:00 +20°C° 0 mm 1 m/S 665 mmHg 85%

    übermorgen, 24 Juli, Dienstag

    Zeit Temperatur Niederschläge Wind Luftdruck Luftfeuchtigkeit
    00:00 +19°C° 0 mm 1 m/S 665 mmHg 87%
    01:00 +19°C° 0 mm 1 m/S 665 mmHg 86%
    02:00 +18°C° 0 mm 1 m/S 665 mmHg 86%
    03:00 +18°C° 0 mm 1 m/S 664 mmHg 85%
    04:00 +18°C° 0 mm 1 m/S 664 mmHg 83%
    05:00 +18°C° 0 mm 1 m/S 664 mmHg 81%
    06:00 +18°C° 0 mm 1 m/S 664 mmHg 79%
    07:00 +21°C° 0 mm 1 m/S 665 mmHg 67%
    08:00 +23°C° 0 mm 1 m/S 666 mmHg 55%
    09:00 +26°C° 0 mm 1 m/S 666 mmHg 43%
    10:00 +28°C° 0 mm 1 m/S 666 mmHg 39%
    11:00 +29°C° 0 mm 1 m/S 666 mmHg 34%
    12:00 +31°C° 0 mm 1 m/S 666 mmHg 30%
    13:00 +31°C° 0 mm 1 m/S 666 mmHg 28%
    14:00 +32°C° 0 mm 1 m/S 666 mmHg 27%
    15:00 +33°C° 0 mm 1 m/S 666 mmHg 25%
    16:00 +32°C° 0 mm 1 m/S 665 mmHg 27%
    17:00 +32°C° 0 mm 1 m/S 665 mmHg 28%
    18:00 +32°C° 0 mm 1 m/S 665 mmHg 29%
    19:00 +30°C° 0 mm 1 m/S 665 mmHg 32%
    20:00 +28°C° 0 mm 1 m/S 664 mmHg 35%
    21:00 +26°C° 0 mm 1 m/S 664 mmHg 38%
    22:00 +26°C° 0 mm 1 m/S 664 mmHg 37%
    23:00 +25°C° 0 mm 1 m/S 664 mmHg 35%

    25 Juli, Mittwoch

    Zeit Temperatur Niederschläge Wind Luftdruck Luftfeuchtigkeit
    00:00 +25°C° 0 mm 2 m/S 664 mmHg 34%
    01:00 +24°C° 0 mm 1 m/S 664 mmHg 35%
    02:00 +24°C° 0 mm 1 m/S 664 mmHg 36%
    03:00 +23°C° 0 mm 1 m/S 664 mmHg 38%
    04:00 +23°C° 0 mm 1 m/S 664 mmHg 40%
    05:00 +23°C° 0 mm 1 m/S 664 mmHg 43%
    06:00 +23°C° 0 mm 1 m/S 664 mmHg 45%
    07:00 +25°C° 0 mm 1 m/S 665 mmHg 42%
    08:00 +27°C° 0 mm 1 m/S 665 mmHg 38%
    09:00 +30°C° 0 mm 1 m/S 666 mmHg 35%
    10:00 +31°C° 0 mm 1 m/S 666 mmHg 33%
    11:00 +32°C° 0 mm 2 m/S 666 mmHg 31%
    12:00 +34°C° 0 mm 2 m/S 666 mmHg 30%
    13:00 +34°C° 0,1 mm 2 m/S 666 mmHg 31%
    14:00 +34°C° 0,1 mm 3 m/S 666 mmHg 32%
    15:00 +34°C° 0,1 mm 3 m/S 666 mmHg 33%
    16:00 +33°C° 0,3 mm 3 m/S 666 mmHg 37%
    17:00 +31°C° 0,3 mm 3 m/S 666 mmHg 41%
    18:00 +30°C° 0,3 mm 3 m/S 666 mmHg 45%
    19:00 +28°C° 0 mm 3 m/S 666 mmHg 54%
    20:00 +26°C° 0 mm 2 m/S 666 mmHg 63%
    21:00 +24°C° 0 mm 2 m/S 666 mmHg 72%
    22:00 +23°C° 0 mm 2 m/S 666 mmHg 73%
    23:00 +23°C° 0 mm 1 m/S 666 mmHg 74%

    26 Juli, Donnerstag

    Zeit Temperatur Niederschläge Wind Luftdruck Luftfeuchtigkeit
    00:00 +22°C° 0 mm 1 m/S 665 mmHg 75%
    01:00 +22°C° 0 mm 1 m/S 665 mmHg 75%
    02:00 +21°C° 0 mm 1 m/S 665 mmHg 75%
    03:00 +21°C° 0 mm 1 m/S 665 mmHg 75%
    04:00 +21°C° 0 mm 1 m/S 666 mmHg 74%
    05:00 +21°C° 0 mm 1 m/S 666 mmHg 74%
    06:00 +21°C° 0 mm 1 m/S 666 mmHg 74%
    07:00 +23°C° 0 mm 1 m/S 667 mmHg 65%
    08:00 +25°C° 0 mm 1 m/S 667 mmHg 56%
    09:00 +28°C° 0 mm 2 m/S 668 mmHg 46%
    10:00 +29°C° 0 mm 2 m/S 668 mmHg 43%
    11:00 +30°C° 0 mm 2 m/S 668 mmHg 39%
    12:00 +32°C° 0 mm 2 m/S 668 mmHg 36%
    13:00 +32°C° 0 mm 2 m/S 668 mmHg 36%
    14:00 +33°C° 0 mm 3 m/S 668 mmHg 37%
    15:00 +34°C° 0 mm 3 m/S 667 mmHg 37%
    16:00 +33°C° 0,3 mm 3 m/S 667 mmHg 42%
    17:00 +32°C° 0,3 mm 4 m/S 667 mmHg 47%
    18:00 +30°C° 0,3 mm 4 m/S 667 mmHg 52%
    19:00 +28°C° 0 mm 3 m/S 667 mmHg 62%
    20:00 +26°C° 0 mm 3 m/S 667 mmHg 72%
    21:00 +24°C° 0 mm 2 m/S 667 mmHg 82%
    22:00 +23°C° 0 mm 2 m/S 666 mmHg 83%
    23:00 +21°C° 0 mm 2 m/S 666 mmHg 83%

    27 Juli, Freitag

    Zeit Temperatur Niederschläge Wind Luftdruck Luftfeuchtigkeit
    00:00 +22°C° 0 mm 1 m/S 666 mmHg 84%
    01:00 +21°C° 0 mm 1 m/S 666 mmHg 82%
    02:00 +21°C° 0 mm 1 m/S 666 mmHg 80%
    03:00 +20°C° 0 mm 1 m/S 666 mmHg 78%
    04:00 +20°C° 0 mm 1 m/S 666 mmHg 77%
    05:00 +20°C° 0 mm 1 m/S 667 mmHg 75%
    06:00 +20°C° 0 mm 1 m/S 667 mmHg 74%
    07:00 +23°C° 0 mm 1 m/S 667 mmHg 66%
    08:00 +25°C° 0 mm 2 m/S 668 mmHg 57%
    09:00 +27°C° 0 mm 2 m/S 668 mmHg 49%
    10:00 +28°C° 0 mm 2 m/S 668 mmHg 46%
    11:00 +30°C° 0 mm 3 m/S 668 mmHg 42%
    12:00 +31°C° 0 mm 3 m/S 669 mmHg 39%
    13:00 +33°C° 0 mm 4 m/S 668 mmHg 39%
    14:00 +33°C° 0 mm 4 m/S 668 mmHg 40%
    15:00 +33°C° 0 mm 4 m/S 668 mmHg 41%
    16:00 +32°C° 0 mm 4 m/S 668 mmHg 46%
    17:00 +30°C° 0 mm 4 m/S 668 mmHg 51%
    18:00 +29°C° 0 mm 5 m/S 667 mmHg 57%
    19:00 +27°C° 0 mm 4 m/S 667 mmHg 66%
    20:00 +25°C° 0 mm 3 m/S 667 mmHg 75%
    21:00 +23°C° 0 mm 2 m/S 667 mmHg 84%
    22:00 +21°C° 0 mm 2 m/S 667 mmHg 86%
    23:00 +21°C° 0 mm 2 m/S 667 mmHg 88%
    Mehr zeigen